When you browse on this site, cookies collect data to enhance your experience and personalize the content and advertising you see.
Visit our Privacy Policy to learn more. By continuing to use the site, you agree to this use of cookies and data.
  • In Hungary
  • List of Countries
  • For 7 days
  • Water Temperature
  • Weather Map
  • News
  • Weather Widgets
  • user-avatar
    Login

    Hourly Weather Krutye

    Today, 19 January, Sunday

    Time Temperature Precipitation Wind Pressure Humidity
    00:00 -2°C° 0 mm 3 mps 744 mmHg 85%
    01:00 -4°C° 0 mm 3 mps 744 mmHg 86%
    02:00 -4°C° 0 mm 3 mps 745 mmHg 92%
    03:00 -4°C° 0 mm 3 mps 745 mmHg 92%
    04:00 -4°C° 0 mm 3 mps 745 mmHg 92%
    05:00 -4°C° 0 mm 3 mps 745 mmHg 93%
    06:00 -4°C° 0 mm 3 mps 746 mmHg 92%
    07:00 -2°C° 0 mm 3 mps 746 mmHg 92%
    08:00 -2°C° 0 mm 3 mps 746 mmHg 91%
    09:00 -2°C° 0 mm 4 mps 746 mmHg 89%
    10:00 -2°C° 0 mm 4 mps 746 mmHg 87%
    11:00 -1°C° 0 mm 4 mps 746 mmHg 85%
    12:00 -1°C° 0 mm 4 mps 747 mmHg 84%
    13:00 -1°C° 0 mm 4 mps 747 mmHg 82%
    14:00 -1°C° 0 mm 4 mps 747 mmHg 81%
    15:00 -1°C° 0 mm 4 mps 747 mmHg 82%
    16:00 -1°C° 0 mm 4 mps 747 mmHg 83%
    17:00 -2°C° 0 mm 4 mps 747 mmHg 83%
    18:00 -2°C° 0 mm 4 mps 747 mmHg 85%
    19:00 -2°C° 0 mm 4 mps 747 mmHg 87%
    20:00 -2°C° 0 mm 4 mps 747 mmHg 89%
    21:00 -1°C° 0.1 mm 5 mps 747 mmHg 91%
    22:00 -1°C° 0.1 mm 5 mps 747 mmHg 94%
    23:00 -1°C° 0.1 mm 5 mps 746 mmHg 96%

    Tomorrow, 20 January, Monday

    Time Temperature Precipitation Wind Pressure Humidity
    00:00 -1°C° 0 mm 5 mps 746 mmHg 93%
    01:00 -1°C° 0 mm 5 mps 747 mmHg 90%
    02:00 0°C° 0 mm 5 mps 747 mmHg 88%
    03:00 0°C° 0 mm 5 mps 746 mmHg 90%
    04:00 -1°C° 0 mm 5 mps 746 mmHg 92%
    05:00 -1°C° 0 mm 5 mps 746 mmHg 94%
    06:00 -1°C° 0.1 mm 5 mps 746 mmHg 95%
    07:00 -1°C° 0.1 mm 5 mps 746 mmHg 95%
    08:00 -1°C° 0.1 mm 5 mps 747 mmHg 96%
    09:00 -1°C° 0.1 mm 5 mps 747 mmHg 96%
    10:00 -1°C° 0.1 mm 5 mps 746 mmHg 96%
    11:00 -1°C° 0.1 mm 5 mps 746 mmHg 95%
    12:00 -1°C° 0.1 mm 5 mps 746 mmHg 96%
    13:00 -1°C° 0.1 mm 5 mps 746 mmHg 96%
    14:00 -1°C° 0.1 mm 5 mps 746 mmHg 96%
    15:00 -1°C° 0 mm 5 mps 746 mmHg 96%
    16:00 -1°C° 0 mm 5 mps 745 mmHg 95%
    17:00 -1°C° 0 mm 5 mps 745 mmHg 95%
    18:00 -1°C° 0 mm 5 mps 745 mmHg 91%
    19:00 -1°C° 0 mm 5 mps 744 mmHg 87%
    20:00 -1°C° 0 mm 5 mps 744 mmHg 83%
    21:00 -1°C° 0 mm 5 mps 743 mmHg 83%
    22:00 -2°C° 0 mm 5 mps 743 mmHg 83%
    23:00 -2°C° 0 mm 5 mps 742 mmHg 82%

    Day after tomorrow, 21 January, Tuesday

    Time Temperature Precipitation Wind Pressure Humidity
    00:00 -2°C° 0 mm 5 mps 742 mmHg 85%
    01:00 -2°C° 0 mm 5 mps 741 mmHg 87%
    02:00 -2°C° 0 mm 5 mps 740 mmHg 89%
    03:00 -2°C° 0.4 mm 5 mps 739 mmHg 90%
    04:00 -3°C° 0.4 mm 6 mps 738 mmHg 92%
    05:00 -3°C° 0.4 mm 6 mps 737 mmHg 93%
    06:00 -2°C° 0.4 mm 6 mps 736 mmHg 91%
    07:00 -1°C° 0.4 mm 6 mps 736 mmHg 90%
    08:00 0°C° 0.4 mm 7 mps 735 mmHg 88%
    09:00 0°C° 0.1 mm 7 mps 735 mmHg 88%
    10:00 +1°C° 0.1 mm 6 mps 734 mmHg 88%
    11:00 +2°C° 0.1 mm 6 mps 733 mmHg 88%
    12:00 +2°C° 0.1 mm 6 mps 733 mmHg 87%
    13:00 +2°C° 0.1 mm 6 mps 733 mmHg 87%
    14:00 +2°C° 0.1 mm 6 mps 733 mmHg 87%
    15:00 +2°C° 0.1 mm 5 mps 732 mmHg 88%
    16:00 +2°C° 0.1 mm 5 mps 731 mmHg 90%
    17:00 +3°C° 0.1 mm 4 mps 730 mmHg 91%
    18:00 +1°C° 0.8 mm 4 mps 730 mmHg 92%
    19:00 +1°C° 0.8 mm 4 mps 730 mmHg 93%
    20:00 +1°C° 0.8 mm 4 mps 730 mmHg 94%
    21:00 0°C° 0.3 mm 4 mps 730 mmHg 90%
    22:00 -1°C° 0.3 mm 5 mps 730 mmHg 86%
    23:00 -1°C° 0.3 mm 5 mps 730 mmHg 82%

    22 January, Wednesday

    Time Temperature Precipitation Wind Pressure Humidity
    00:00 -2°C° 0 mm 5 mps 730 mmHg 81%
    01:00 -2°C° 0 mm 5 mps 730 mmHg 80%
    02:00 -4°C° 0 mm 5 mps 730 mmHg 79%
    03:00 -4°C° 0 mm 6 mps 730 mmHg 78%
    04:00 -4°C° 0 mm 6 mps 729 mmHg 77%
    05:00 -4°C° 0 mm 6 mps 729 mmHg 77%
    06:00 -4°C° 0 mm 6 mps 729 mmHg 78%
    07:00 -4°C° 0 mm 5 mps 728 mmHg 80%
    08:00 -4°C° 0 mm 5 mps 728 mmHg 82%
    09:00 -4°C° 0.4 mm 5 mps 728 mmHg 82%
    10:00 -4°C° 0.4 mm 5 mps 728 mmHg 83%
    11:00 -4°C° 0.4 mm 6 mps 728 mmHg 83%
    12:00 -4°C° 0.1 mm 5 mps 727 mmHg 79%
    13:00 -4°C° 0.1 mm 5 mps 727 mmHg 75%
    14:00 -4°C° 0.1 mm 5 mps 727 mmHg 71%
    15:00 -4°C° 0 mm 5 mps 727 mmHg 73%
    16:00 -5°C° 0 mm 5 mps 727 mmHg 76%
    17:00 -5°C° 0 mm 4 mps 728 mmHg 78%
    18:00 -5°C° 0 mm 4 mps 728 mmHg 79%
    19:00 -6°C° 0 mm 5 mps 728 mmHg 79%
    20:00 -6°C° 0 mm 5 mps 729 mmHg 80%
    21:00 -6°C° 0.1 mm 5 mps 729 mmHg 81%
    22:00 -6°C° 0.1 mm 5 mps 729 mmHg 81%
    23:00 -6°C° 0.1 mm 5 mps 730 mmHg 82%

    23 January, Thursday

    Time Temperature Precipitation Wind Pressure Humidity
    00:00 -8°C° 0 mm 6 mps 730 mmHg 78%
    01:00 -8°C° 0 mm 6 mps 731 mmHg 73%
    02:00 -9°C° 0 mm 6 mps 731 mmHg 68%
    03:00 -9°C° 0 mm 6 mps 732 mmHg 67%
    04:00 -10°C° 0 mm 6 mps 732 mmHg 66%
    05:00 -10°C° 0 mm 6 mps 733 mmHg 64%
    06:00 -10°C° 0 mm 6 mps 733 mmHg 63%
    07:00 -10°C° 0 mm 6 mps 734 mmHg 62%
    08:00 -10°C° 0 mm 5 mps 734 mmHg 61%
    09:00 -10°C° 0.1 mm 6 mps 734 mmHg 60%
    10:00 -9°C° 0.1 mm 6 mps 735 mmHg 59%
    11:00 -9°C° 0.1 mm 6 mps 735 mmHg 57%
    12:00 -9°C° 0 mm 6 mps 736 mmHg 57%
    13:00 -9°C° 0 mm 6 mps 736 mmHg 57%
    14:00 -9°C° 0 mm 6 mps 737 mmHg 57%
    15:00 -10°C° 0 mm 5 mps 737 mmHg 59%
    16:00 -10°C° 0 mm 5 mps 738 mmHg 61%
    17:00 -9°C° 0 mm 4 mps 738 mmHg 64%
    18:00 -10°C° 0 mm 4 mps 738 mmHg 66%
    19:00 -10°C° 0 mm 4 mps 739 mmHg 68%
    20:00 -9°C° 0 mm 3 mps 739 mmHg 70%
    21:00 -9°C° 0 mm 3 mps 739 mmHg 72%
    22:00 -9°C° 0 mm 3 mps 739 mmHg 73%
    23:00 -10°C° 0 mm 3 mps 739 mmHg 75%

    24 January, Friday

    Time Temperature Precipitation Wind Pressure Humidity
    00:00 -9°C° 0 mm 3 mps 738 mmHg 72%
    01:00 -9°C° 0 mm 3 mps 738 mmHg 69%
    02:00 -9°C° 0 mm 3 mps 737 mmHg 66%
    03:00 -8°C° 0.1 mm 3 mps 736 mmHg 75%
    04:00 -9°C° 0.1 mm 4 mps 735 mmHg 84%
    05:00 -8°C° 0.1 mm 4 mps 734 mmHg 92%
    06:00 -8°C° 0.5 mm 4 mps 733 mmHg 93%
    07:00 -7°C° 0.5 mm 5 mps 732 mmHg 93%
    08:00 -6°C° 0.5 mm 5 mps 731 mmHg 94%
    09:00 -5°C° 0.2 mm 5 mps 730 mmHg 93%
    10:00 -3°C° 0.2 mm 4 mps 729 mmHg 93%
    11:00 -2°C° 0.2 mm 4 mps 729 mmHg 92%
    12:00 -2°C° 0.1 mm 5 mps 729 mmHg 89%
    13:00 -3°C° 0.1 mm 6 mps 729 mmHg 86%
    14:00 -2°C° 0.1 mm 7 mps 728 mmHg 83%
    15:00 -3°C° 0 mm 6 mps 729 mmHg 81%
    16:00 -3°C° 0 mm 6 mps 730 mmHg 80%
    17:00 -4°C° 0 mm 6 mps 730 mmHg 79%
    18:00 -4°C° 0 mm 6 mps 731 mmHg 77%
    19:00 -5°C° 0 mm 6 mps 731 mmHg 75%
    20:00 -5°C° 0 mm 6 mps 731 mmHg 72%
    21:00 -5°C° 0 mm 5 mps 732 mmHg 75%
    22:00 -5°C° 0 mm 5 mps 732 mmHg 78%
    23:00 -6°C° 0 mm 5 mps 732 mmHg 81%
    Show more